NOAA 17 DEB

Satellite information

Favourite Embed

Satellite Type and Status

DEBRISIN ORBIT

Key statistics

Satellite NOAA 17 DEB at a glance.

Uptime

8414

Days in orbit

Revolutions

≈ 14.4

Per day

Orbit

SSO

Sun Synchronous Orbit

Inclination

98.9

Latest

Satellite identification and parameters

Extended collection of information and parameters for NOAA 17 DEB.

Object identification

Identified? True

Debris? True

Object name: NOAA 17 DEB

International designator: 2002-032CD

Object number (NORAD): 48744

Object ID (CCSDS): 48744

Country: UNITED STATES OF AMERICA (US)

Current information (Y/N): Y

RCS size: SMALL

Orbital parameters

Period: 99.686 minutes

Inclination: 98.8998 deg

SMA: 7121.684 km

Apoapsis: 753.389 km

Periapsis: 733.709 km

RAAN: 185.6908 deg

Eccentricy: 0.0013817

Argument of periapsis: 181.9584 deg

Mean anomaly: 178.1554 deg

Mean motion: 14.44537242 rev/day

Mean motion (dot): 0.00003657 rev/day2

B* drag term: 0.0010703 1/REarth

Two-line elements (TLE)

Creation date: July 6, 2025, 10:56 p.m.

Reference frame: TEME

Reference center: EARTH

Epoch: July 6, 2025, 8:10 p.m. UTC

TLE line 0: 0 NOAA 17 DEB

TLE line 1: 1 48744U 02032CD 25187.84047492 .00003657 00000-0 10703-2 0 9999

TLE line 2: 2 48744 98.8998 185.6908 0013817 181.9584 178.1554 14.44537242223692

Live tracking on map

Real-time ground track for satellite NOAA 17 DEB.

In-orbit conjunctions

A list of the most updated potential collisions computed for object NOAA 17 DEB.

Target Orbit TCA Probability of collision Miss distance Type
FENGYUN 1C DEB SSO 2025-06-14 16:01:27 0.0002034231 98.0 (m) DEBRIS
SL-8 R/B LEO 2024-08-16 23:01:09 0.0003377809 288.0 (m) ROCKET BODY

Associated space launch

NOAA M carried weather imagers and microwave and infrared sounders, as well as a SARSAT search-and-rescue package. It had an on-orbit mass of 1475 kg.

NOAA 17 DEB was lifted into orbit during the mission ‘Titan II SLV | NOAA 17’, on board a Titan II SLV space rocket.

The launch took place on June 24, 2002, 6:23 p.m. from Space Launch Complex 4W.

For more information about the launch, click the button.

Launch to space Titan II SLV | NOAA 17
Titan II SLV | NOAA 17

Agency: N/A

Status: Launch Successful

Launch date: June 24, 2002, 6:23 p.m. UTC

Rocket: Titan II SLV

Launch pad: Space Launch Complex 4W

Location: Vandenberg SFB, CA, USA

...

Latest news about this satellite

There are no fresh news available about this satellite. Check back as we update our databases every day.


Newsletter sign-up

Weekly statistics, charts and insights to help you stay on top of the space industry.